Regional Weather Roundup
Issued by NWS

Home | Current Version | Previous Version | Text Only | Print | Product List | Glossary Off
Versions: 1 2 3 4 5 6 7 8 9 10 11 12 13 14 15 16 17 18 19 20 21 22 23 24 25 26 27 28 29 30 31 32 33 34 35 36 37 38 39 40 41 42 43 44 45 46 47 48 49 50

000
ASUS45 KSLC 271010
RWRUT

UTAH REGIONAL WEATHER ROUNDUP
NATIONAL WEATHER SERVICE SALT LAKE CITY UT
400 AM MDT TUE SEP 27 2016

UTZ001>011-023>025-271100-

NORTHERN UTAH

CITY           SKY/WX    TMP DP  RH WIND       PRES   REMARKS
BRIGHAM CITY     N/A     50  46  88 CALM      30.23F
HILL AFB       CLEAR     54  42  65 E12       30.25S
LOGAN          CLEAR     46  44  93 CALM      30.25F
OGDEN          CLEAR     53  44  71 S9        30.23F
PROVO AIRPORT  CLEAR     48  44  86 CALM      30.26F
SALT LAKE CITY CLEAR     53  48  83 SE8       30.23S
VERNAL         CLOUDY    44  41  89 CALM      30.30F
WENDOVER       PTCLDY    50  43  76 CALM      30.22F
HEBER CITY     CLEAR     39  36  87 CALM      30.31S
WEST JORDAN    CLEAR     52  44  75 SW7       30.25S

$$

UTZ012>022-026-027-271100-

SOUTHERN/CENTRAL UTAH

CITY           SKY/WX    TMP DP  RH WIND       PRES   REMARKS
BLANDING       CLEAR     49  35  58 NE9       30.37S
BRYCE CANYON   CLEAR     36  31  82 W9        30.40F WCI  29
CEDAR CITY     CLEAR     46  35  65 NE3       30.27F
DELTA          CLEAR     46  43  87 CALM      30.25S
MILFORD        CLEAR     47  34  60 S6        30.26F
MOAB/CYNLANDS  CLEAR     53  36  52 W3        30.22F
PRICE          CLEAR     50  40  68 N9        30.29F
ST GEORGE      SUNNY     64  36  34 CALM      30.13F

$$

REGIONAL REPORTS     COLORADO/ARIZONA

CITY           SKY/WX    TMP DP  RH WIND       PRES   REMARKS
CRAIG, CO      CLOUDY    33  30  88 CALM      30.35F
GRAND JUNCTION CLEAR     51  39  63 SE13      30.25F
RIFLE          CLOUDY    44  39  82 CALM      30.32F
MONTROSE       CLOUDY    46  37  71 S8        30.33F
CORTEZ         CLEAR     40  36  86 CALM      30.32F
PAGE, AZ       CLEAR     59  37  44 CALM      30.20S
GRAND CANYON   PTCLDY    45  36  70 NE5       30.31F
KINGMAN        CLEAR     65  32  29 S12       30.09F
FLAGSTAFF      MOCLDY    47  36  65 E5        30.30F

$$

REGIONAL REPORTS    NEVADA/IDAHO/WYOMING

CITY           SKY/WX    TMP DP  RH WIND       PRES   REMARKS
LAS VEGAS, NV  CLEAR     71  30  21 S6        30.01F
ELY            CLEAR     37  31  78 S7        30.32F WCI  32
ELKO           CLEAR     48  40  73 CALM      30.24F
POCATELLO, ID  CLOUDY    43  39  86 NE7       30.25S
BURLEY         CLEAR     43  42  97 CALM      30.19F
EVANSTON, WY   CLOUDY    46  33  60 SE5       30.36F
ROCK SPRINGS   CLOUDY    44  39  82 S3        30.35F

$$



USA.gov is the U.S. government's official web portal to all federal, state and local government web resources and services.